1294704028287,3.04148
1294704088287,3.02047
1294704148287,3.00694
1294704208287,2.98795
1294704268287,3.01793
1294704328287,2.99843
1294704388287,3.03267
1294704448287,3.02723
1294704508287,2.99649
1294704568287,3.02318
1294704628287,3.02518
1294704688287,3.03273
1294704748287,3.01418
1294704808287,2.98454
1294704868287,3.00494
1294704928287,3.01871
1294704988287,3.01548
1294705048287,3.00481
1294705108287,3.02902
1294705168287,3.01279
1294705228287,3.00662
1294705288287,3.02720
1294705348287,3.05616
1294705408287,3.04352
1294705468287,3.03557
1294705528287,3.00952
1294705588287,3.04785
1294705648287,3.05257
1294705708287,3.01574
1294705768287,3.04777
1294705828287,3.08045
1294705888287,3.02345
1294705948287,3.03265
1294706008287,3.03108
1294706068287,3.01537
1294706128287,3.02364
1294706188287,3.03155
1294706248287,3.02102
1294706308287,3.06544
1294706368287,3.04434
1294706428287,3.06776
1294706488287,3.06609
1294706548287,3.07211
1294706608287,3.03665
1294706668287,3.02500
1294706728287,3.05535
1294706788287,3.04937
1294706848287,3.00572
1294706908287,3.03599
1294706968287,3.05523
1294707028287,3.03790
1294707088287,3.04932
1294707148287,3.04887
1294707208287,3.04182
1294707268287,3.02647
1294707328287,3.01275
1294707388287,3.02309
1294707448287,3.02373
1294707508287,3.04147
1294707568287,3.04009
1294707628297,3.01483
1294707688297,3.03647
1294707748297,3.01327
1294707808297,3.01701
1294707868297,3.03335
1294707928297,3.01867
1294707988297,3.06344
1294708048297,3.02732
1294708108297,3.03483
1294708168297,3.04127
1294708228297,3.03143
1294708288297,3.03277
1294708348297,3.09276
1294708408297,3.04714
1294708468297,3.09988
1294708528297,3.04402
1294708588297,3.02274
1294708648297,3.04848
1294708708297,3.05121
1294708768297,3.00692
1294708828297,3.03681
1294708888297,3.04016
1294708948297,3.03510
1294709008297,3.03915
1294709068297,3.02701
1294709128297,3.01871
1294709188297,3.02587
1294709248297,3.00068
1294709308297,3.03081
1294709368297,3.03747
1294709428297,2.99302
1294709488297,3.02402
1294709548297,3.03867
1294709608297,3.02384
1294709668297,3.01469
1294709728297,3.01637
1294709788297,3.03195
1294709848297,3.01267
1294709908297,3.02653
1294709968297,3.03002
1294710028297,3.03159
1294710088297,3.02775
1294710148297,3.00749
1294710208297,3.02177
1294710268297,3.02176
1294710328297,3.01947
1294710388297,3.04235
1294710448297,3.03974
1294710508297,3.00950
1294710568297,3.01610
1294710628297,3.01884
1294710688297,3.02467
1294710748297,3.03791
1294710808297,3.04544
1294710868297,3.02875
1294710928297,3.01723
1294710988297,3.00662
1294711048297,3.01844
1294711108297,3.02113
1294711168297,3.01420
1294711228308,3.00942
1294711288308,3.02004
1294711348308,2.99231
1294711408308,3.04331
1294711468308,3.02864
1294711528308,3.00580
1294711588308,3.00619
1294711648308,3.02755
1294711708308,2.98985
1294711768308,3.00800
1294711828308,3.01336
1294711888308,3.01386
1294711948308,2.99491
1294712008308,3.00685
1294712068308,3.01413
1294712128308,2.99455
1294712188308,3.00910
1294712248308,3.01489
1294712308308,3.03936
1294712368308,3.02788
1294712428308,2.98205
1294712488308,3.01090
1294712548308,3.00553
1294712608308,3.00846
1294712668308,3.00647
1294712728308,2.99646
1294712788308,3.00294
1294712848308,3.00781
1294712908308,2.99285
1294712968308,3.01575
1294713028308,3.00507
1294713088308,2.98810
1294713148308,2.99889
1294713208308,2.99356
1294713268308,2.97630
1294713328308,3.00850
1294713388308,2.97544
1294713448308,2.98742
1294713508308,2.98384
1294713568308,2.98921
1294713628308,3.07628
1294713688308,2.97901
1294713748308,3.00977
1294713808308,2.97941
1294713868308,3.05534
1294713928308,3.00240
1294713988308,2.99426
1294714048308,2.99827
1294714108308,3.02491
1294714168308,3.01623
1294714228308,2.98649
1294714288308,2.99525
1294714348308,2.99255
1294714408308,3.01105
1294714468308,3.00914
1294714528308,2.95498
1294714588308,2.98056
1294714648308,2.97507
1294714708308,3.00192
1294714768308,2.98927
1294714828319,3.00487
1294714888319,2.97410
1294714948319,3.00857
1294715008319,3.00463
1294715068319,2.95815
1294715128319,2.99322
1294715188319,2.98221
1294715248319,2.96883
1294715308319,3.00188
1294715368319,2.97825
1294715428319,2.98184
1294715488319,2.98506
1294716028319,2.96943
1294716088319,2.97540
1294716148319,2.98790
1294716208319,2.99284
1294716268319,2.95830
1294716328319,3.00805
1294716388319,3.00787
1294716448319,2.98090
1294716508319,2.99491
1294716568319,2.97673
1294716628319,2.97773
1294716688319,2.94563
1294716748319,2.97979
1294716808319,2.98150
1294716868319,3.00500
1294716928319,2.97603
1294716988319,2.95501
1294717048319,3.00642
1294717108319,2.98384
1294717168319,2.95147
1294717228319,2.98396
1294717288319,2.97557
1294717348319,2.94810
1294717408319,2.97575
1294717468319,2.97578
1294717528319,2.97657
1294717588319,2.95874
1294717648319,2.99448
1294717708319,3.00932
1294717768319,2.97064
1294717828319,2.99763
1294717888319,2.99015
1294717948319,2.93937
1294718008319,2.97200
1294718068319,2.96606
1294718128319,2.97813
1294718188319,2.98475
1294718248319,2.97822
1294718308319,2.99797
1294718368319,2.98655
1294718428329,2.98245
1294718488329,2.99216
1294718548329,2.97963
1294718608329,3.05104
1294718668329,2.96847
1294718728329,2.98701
1294718788329,2.98418
1294718848329,2.96483
1294718908329,2.97811
1294718968329,3.01082
1294719028329,2.98146
1294719088329,2.97414
1294719148329,2.97396
1294719208329,2.98094
1294719268329,2.97380
1294719328329,2.96806
1294719388329,2.96023
1294719448329,3.00030
1294719508329,2.97681
1294719568329,2.98419
1294719628329,2.95427
1294719688329,2.96241
1294719748329,2.96987
1294719808329,2.96965
1294719868329,2.96847
1294719928329,2.97040
1294719988329,2.96623
1294720048329,2.94664
1294720108329,2.99070
1294720168329,2.97279
1294720228329,2.96461
1294720288329,2.93436
1294720348329,2.95673
1294720408329,2.95802
1294720468329,2.96968
1294720528329,2.97967
1294720588329,2.95041
1294720648329,2.98441
1294720708329,2.98949
1294720768329,2.99085
1294720828329,2.98493
1294720888329,2.98465
1294720948329,2.97839
1294721008329,2.96122
1294721068329,2.97310
1294721128329,2.94029
1294721188329,2.98434
1294721248329,2.99091
1294721308329,2.99073
1294721368329,2.93154
1294721428329,2.98909
1294721488329,2.96127
1294721548329,2.94135
1294721608329,2.97921
1294721668329,2.97259
1294721728329,2.96093
1294721788329,2.98591
1294721848329,2.96327
1294721908329,2.95326
1294721968329,2.98386
1294722028340,2.97160
1294722088340,2.97551
1294722148340,2.95607
1294722208340,2.97938
1294722268340,2.95471
1294722328340,2.95643
1294722388340,2.94526
1294722448340,2.97447
1294722508340,2.95619
1294722568340,2.94658
1294722628340,2.96656
1294722688340,2.94635
1294722748340,2.98380
1294722808340,2.95265
1294722868340,2.96999
1294722928340,2.94594
1294722988340,2.94348
1294723048340,2.98362
1294723108340,2.97003
1294723168340,2.96646
1294723228340,2.94639
1294723288340,2.97176
1294723348340,2.96132
1294723408340,2.95181
1294723468340,2.94182
1294723528340,2.96419
1294723588340,2.96446
1294723648340,2.95385
1294723708340,2.96006
1294723768340,2.95888
1294723828340,2.97368
1294723888340,2.95496
1294723948340,2.98466
1294724008340,2.98710
1294724068340,2.98814
1294724128340,2.96533
1294724188340,2.98816
1294724248340,2.95100
1294724308340,2.95553
1294724368340,2.92680
1294724428340,2.98132
1294724488340,2.97512
1294724548340,2.95015
1294724608340,2.92769
1294724668340,2.94294
1294724728340,2.93501
1294724788340,2.93304
1294724848340,2.96376
1294724908340,2.96027
1294724968340,2.94797
1294725028340,2.95104
1294725088340,2.93915
1294725148340,2.95380
1294725208340,2.93646
1294725268340,2.94866
1294725328340,2.95569
1294725388340,2.94263
1294725448340,2.93620
1294725508340,2.96562
1294725568340,2.99237
1294725628351,2.93801
1294725688351,2.94487
1294725748351,2.95896
1294725808351,2.95016
1294725868351,2.94802
1294725928351,2.93940
1294725988351,2.93674
1294726048351,2.94746
1294726108351,2.95872
1294726168351,2.96574
1294726228351,2.96522
1294726288351,2.93102
1294726348351,2.96033
1294726408351,2.96493
1294726468351,2.94069
1294726528351,2.96179
1294726588351,2.96200
1294726648351,2.97911
1294726708351,2.96633
1294726768351,2.97348
1294726828351,2.96014
1294726888351,2.93113
1294726948351,2.96994
1294727008351,2.98126
1294727068351,2.99489
1294727128351,2.95083
1294727188351,2.95888
1294727248351,2.96558
1294727308351,2.95319
1294727368351,2.94411
1294727428351,2.99619
1294727488351,2.96705
1294727548351,2.98407
1294727608351,2.96303
1294727668351,2.95009
1294727728351,2.97136
1294727788351,2.99951
1294727848351,2.97402
1294727908351,2.99292
1294727968351,2.98413
1294728028351,2.98475
1294728088351,3.00627
1294728148351,2.97689
1294728208351,2.96508
1294728268351,2.97515
1294728328351,2.96846
1294728388351,2.96329
1294728448351,2.95165
1294728508351,2.97174
1294728568351,2.95093
1294728628351,2.96879
1294728688351,2.96212
1294728748351,3.01327
1294728808351,2.98622
1294728868351,2.97474
1294728928351,2.99967
1294728988351,2.93140
1294729048351,2.96451
1294729108351,3.00405
1294729168351,2.97180
1294729228363,2.95448
1294729288363,2.95496
1294729348363,2.97708
1294729408363,2.97266
1294729468363,2.95772
1294729528363,2.97854
1294729588363,2.96332
1294729648363,2.96078
1294729708363,2.96178
1294729768363,2.95693
1294729828363,2.94142
1294729888363,2.96144
1294729948363,2.97151
1294730008363,2.94689
1294730068363,2.95051
1294730128363,2.99760
1294730188363,2.99005
1294730248363,2.93495
1294730308363,2.96612
1294730368363,2.94126
1294730428363,2.96201
1294730488363,2.96732
1294730548363,2.98603
1294730608363,2.97833
1294730668363,2.95835
1294730728363,2.98631
1294730788363,2.96889
1294730848363,2.97368
1294730908363,2.97237
1294730968363,2.96922
1294731028363,2.98262
1294731088363,2.93800
1294731148363,2.98281
1294731208363,2.98344
1294731268363,2.96755
1294731328363,2.95940
1294731388363,2.98553
1294731448363,2.94926
1294731508363,2.97654
1294731568363,2.96614
1294731628363,2.99002
1294731688363,2.96136
1294731748363,2.94729
1294731808363,2.96811
1294731868363,2.96039
1294731928363,2.95448
1294731988363,2.96126
1294732048363,2.98194
1294732108363,2.98991
1294732168363,2.95941
1294732228363,2.95907
1294732288363,2.98249
1294732348363,2.96519
1294732408363,2.97134
1294732468363,2.97901
1294732528363,2.98408
1294732588363,2.99279
1294732648363,2.97878
1294732708363,3.00302
1294732768363,3.00233
1294732828374,2.97203
1294732888374,2.93771
1294732948374,2.98504
1294733008374,2.96142
1294733068374,2.98582
1294733128374,2.98271
1294733188374,3.00278
1294733248374,2.97230
1294733308374,3.00581
1294733368374,2.99229
1294733428374,2.96778
1294733488374,2.96084
1294733548374,2.97807
1294733608374,2.98757
1294733668374,2.98458
1294733728374,2.97714
1294733788374,2.96312
1294733848374,2.96305
1294733908374,2.96357
1294733968374,2.96604
1294734028374,2.94551
1294734088374,2.95341
1294734148374,2.98187
1294734208374,2.97156
1294734268374,2.97564
1294734328374,2.97487
1294734388374,2.92611
1294734448374,2.98827
1294734508374,2.95730
1294734568374,2.96771
1294734628374,2.96724
1294734688374,2.95216
1294734748374,2.94498
1294734808374,2.93880
1294734868374,2.96111
1294734928374,2.95759
1294734988374,2.93214
1294735048374,2.97921
1294735108374,2.96162
1294735168374,2.96142
1294735228374,2.93607
1294735288374,2.94750
1294735348374,2.98233
1294735408374,2.97662
1294735468374,2.96574
1294735528374,2.94821
1294735588374,2.97907
1294735648374,2.96998
1294735708374,2.95336
1294735768374,2.96363
1294735828374,2.97778
1294735888374,2.97703
1294735948374,2.97874
1294736008374,2.95710
1294736068374,2.94290
1294736128374,2.95032
1294736188374,2.94072
1294736248374,2.95574
1294736308374,2.95600
1294736368374,2.94741
1294736428386,2.97459
1294736488386,2.97822
1294736548386,2.96165
1294736608386,2.96121
1294736668386,2.95135
1294736728386,2.97549
1294736788386,2.97375
1294736848386,2.96593
1294736908386,2.95861
1294736968386,2.97560
1294737028386,2.99023
1294737088386,2.97881
1294737148386,2.99764
1294737208386,2.98500
1294737268386,2.98512
1294737328386,2.96208
1294737388386,2.95979
1294737448386,2.97201
1294737508386,3.00325
1294737568386,2.99112
1294737628386,2.94287
1294737688386,2.98203
1294737748386,2.98972
1294737808386,2.99594
1294737868386,2.98047
1294737928386,2.95515
1294737988386,3.00014
1294738048386,2.97600
1294738108386,2.98799
1294738168386,2.97601
1294738228386,2.99232
1294738288386,3.00570
1294738348386,2.98192
1294738408386,2.99214
1294738468386,3.00058
1294738528386,2.97000
1294738588386,2.97078
1294738648386,2.96054
1294738708386,2.98376
1294738768386,2.99341
1294738828386,2.97320
1294738888386,2.97624
1294738948386,2.99799
1294739008386,2.96937
1294739068386,2.96732
1294739128386,2.96792
1294739188386,2.96879
1294739248386,2.97590
1294739308386,2.96572
1294739368386,2.97691
1294739428386,2.99160
1294739488386,2.97497
1294739548386,2.99371
1294739608386,2.98382
1294739668386,2.98763
1294739728386,2.97107
1294739788386,2.97301
1294739848386,2.97110
1294739908386,2.97515
1294739968386,2.98830
1294740028398,2.95806
1294740088398,2.97362
1294740148398,2.98700
1294740208398,2.98806
1294740268398,2.97442
1294740328398,2.96418
1294740388398,2.96268
1294740448398,2.95377
1294740508398,2.96043
1294740568398,2.97188
1294740628398,2.96219
1294740688398,2.96778
1294740748398,2.95350
1294740808398,2.94369
1294740868398,2.96898
1294740928398,2.95748
1294740988398,2.94081
1294741048398,2.94815
1294741108398,2.96097
1294741168398,2.97613
1294741228398,2.96033
1294741288398,2.94915
1294741348398,3.01471
1294741408398,2.98551
1294741468398,2.97900
1294741528398,2.99339
1294741588398,2.97645
1294741648398,2.96814
1294741708398,2.95713
1294741768398,2.94072
1294741828398,2.93856
1294741888398,2.96270
1294741948398,2.97442
1294742008398,2.95946
1294742068398,2.96437
1294742128398,2.95707
1294742188398,2.96070
1294742248398,2.96262
1294742308398,2.97506
1294742368398,2.95324
1294742428398,2.94506
1294742488398,2.98980
1294742548398,2.96576
1294742608398,2.97483
1294742668398,2.93032
1294742728398,2.95179
1294742788398,2.95076
1294742848398,2.95529
1294742908398,2.94103
1294742968398,2.93839
1294743028398,2.99970
1294743088398,2.95731
1294743148398,2.95702
1294743208398,2.94241
1294743268398,2.96588
1294743328398,2.95668
1294743388398,2.94761
1294743448398,2.96603
1294743508398,2.92974
1294743568398,2.95481
1294743628410,2.96550
1294743688410,2.91599
1294743748410,2.96437
1294743808410,2.96138
1294743868410,2.93808
1294743928410,2.94467
1294743988410,2.96603
1294744048410,2.96938
1294744108410,2.96171
1294744168410,2.97118
1294744228410,2.99364
1294744288410,2.97157
1294744348410,2.92476
1294744408410,2.93857
1294744468410,2.96151
1294744528410,2.94199
1294744588410,2.93332
1294744648410,2.95477
1294744708410,2.94107
1294744768410,2.97383
1294744828410,2.96017
1294744888410,2.95623
1294744948410,2.98320
1294745008410,2.99035
1294745068410,2.94349
1294745128410,2.97521
1294745188410,2.95899
1294745248410,2.96546
1294745308410,2.95842
1294745368410,2.92347
1294745428410,2.96974
1294745488410,2.93591
1294745548410,2.92598
1294745608410,2.95742
1294745668410,2.96250
1294745728410,2.97000
1294745788410,2.96144
1294745848410,2.99713
1294745908410,2.95854
1294745968410,2.95676
1294746028410,2.94122
1294746088410,2.96183
1294746148410,2.98643
1294746208410,2.94768
1294746268410,2.92892
1294746328410,2.96003
1294746388410,2.96303
1294746448410,2.96158
1294746508410,2.95640
1294746568410,2.94744
1294746628410,2.95743
1294746688410,2.98019
1294746748410,2.98752
1294746808410,2.95587
1294746868410,2.97363
1294746928410,2.96194
1294746988410,2.94828
1294747048410,2.96244
1294747108410,2.95795
1294747168410,2.97385
1294747228422,2.97983
1294747288422,2.96272
1294747348422,2.94335
1294747408422,2.97862
1294747468422,2.94117
1294747528422,2.96344
1294747588422,2.96647
1294747648422,2.98345
1294747708422,2.97966
1294747768422,2.98331
1294747828422,2.95607
1294747888422,2.97711
1294747948422,2.94103
1294748008422,2.96667
1294748068422,2.93764
1294748128422,2.97922
1294748188422,2.93701
1294748248422,2.96405
1294748308422,2.96830
1294748368422,2.96461
1294748428422,2.94745
1294748488422,2.95732
1294748548422,2.95141
1294748608422,2.94038
1294748668422,2.96239
1294748728422,2.94337
1294748788422,2.97068
1294748848422,2.94909
1294748908422,2.96818
1294748968422,2.96824
1294749028422,2.99723
1294749088422,2.93953
1294749148422,2.94265
1294749208422,2.97400
1294749268422,2.96020
1294749328422,2.97952
1294749388422,2.96048
1294749448422,2.96450
1294749508422,2.97125
1294749568422,2.99087
1294749628422,2.97087
1294749688422,2.96714
1294749748422,2.97902
1294749808422,2.95039
1294749868422,2.96480
1294749928422,2.97816
1294749988422,2.94273
1294750048422,2.95776
1294750108422,2.98472
1294750168422,2.96422
1294750228422,2.98198
1294750288422,2.95320
1294750348422,2.93952
1294750408422,2.96874
1294750468422,2.97565
1294750528422,2.96266
1294750588422,2.98269
1294750648422,2.94986
1294750708422,2.98046
1294750768422,2.99135
1294750828434,2.99005
1294750888434,2.96212
1294750948434,2.98301
1294751008434,2.97085
1294751068434,2.96010
1294751128434,2.95572
1294751188434,2.94502
1294751248434,2.95219
1294751308434,2.98296
1294751368434,2.93749
1294751428434,2.97486
1294751488434,2.94654
1294751548434,2.95882
1294751608434,2.94315
1294751668434,2.96476
1294751728434,2.94650
1294751788434,3.02716
1294751848434,2.96463
1294751908434,2.97023
1294751968434,2.98272
1294752028434,2.95920
1294752088434,2.91813
1294752148434,2.94409
1294752208434,2.94709
1294752268434,2.92496
1294752328434,2.94336
1294752388434,2.93927
1294752448434,2.94766
1294752508434,2.92442
1294752568434,2.95883
1294752628434,2.96231
1294752688434,2.97128
1294752748434,2.96112
1294752808434,2.94318
1294752868434,2.93586
1294752928434,2.98571
1294752988434,2.95382
1294753048434,2.93734
1294753108434,2.94257
1294753168434,2.95750
1294753228434,2.96990
1294753288434,2.96293
1294753348434,2.97247
1294753408434,2.94619
1294753468434,2.96883
1294753528434,2.92939
1294753588434,2.95820
1294753648434,2.96190
1294753708434,2.96258
1294753768434,2.91911
1294753828434,2.94191
1294753888434,2.94137
1294753948434,2.98755
1294754008434,2.95713
1294754068434,2.96180
1294754128434,2.95631
1294754188434,2.94652
1294754248434,2.95135
1294754308434,2.95617
1294754368434,2.95990
1294754428446,2.99335
1294754488446,2.95868
1294754548446,2.95766
1294754608446,2.98463
1294754668446,2.94043
1294754728446,2.93933
1294754788446,2.94515
1294754848446,2.96522
1294754908446,2.94521
1294754968446,2.94158
1294755028446,2.96237
1294755088446,2.95505
1294755148446,2.96214
1294755208446,2.97749
1294755268446,2.91418
1294755328446,2.97869
1294755388446,2.92510
1294755448446,2.95270
1294755508446,2.93988
1294755568446,2.94889
1294755628446,2.93267
1294755688446,2.93842
1294755748446,2.95379
1294755808446,2.96692
1294755868446,2.98731
1294755928446,2.96636
1294755988446,2.96127
1294756048446,2.94185
1294756108446,2.93686
1294756168446,2.96399
1294756228446,2.93863
1294756288446,2.95379
1294756348446,2.97368
1294756408446,2.92989
1294756468446,2.92731
1294756528446,2.92664
1294756588446,2.95070
1294756648446,2.93835
1294756708446,2.93794
1294756768446,2.94660
1294756828446,2.96347
1294756888446,2.98448
1294756948446,2.95026
1294757008446,2.94793
1294757068446,2.92481
1294757128446,2.93937
1294757188446,2.96415
1294757248446,2.94140
1294757308446,2.95491
1294757368446,2.95565
1294757428446,2.90611
1294757488446,2.98213
1294757548446,2.97062
1294757608446,2.92840
1294757668446,2.94229
1294757728446,2.93491
1294757788446,2.96867
1294757848446,2.94852
1294757908446,2.92986
1294757968446,2.92711
1294758028458,2.92795
1294758088458,2.95607
1294758148458,2.92994
1294758208458,2.95304
1294758268458,2.97629
1294758328458,2.95808
1294758388458,2.91025
1294758448458,2.93958
1294758508458,2.97485
1294758568458,2.96166
1294758628458,2.96218
1294758688458,2.97235
1294758748458,2.95190
1294758808458,2.93892
1294758868458,2.93870
1294758928458,2.96588
1294758988458,2.97168
1294759048458,2.94868
1294759108458,2.97366
1294759168458,2.92820
1294759228458,2.94113
1294759288458,2.92353
1294759348458,2.94941
1294759408458,2.95577
1294759468458,2.95806
1294759528458,2.94667
1294759588458,2.97236
1294759648458,2.94071
1294759708458,2.96812
1294759768458,2.97739
1294759828458,2.91384
1294759888458,2.93496
1294759948458,2.96858
1294760008458,2.95437
1294760068458,2.94357
1294760128458,2.95893
1294760188458,2.94805
1294760248458,2.94320
1294760308458,2.97492
1294760368458,2.94492
1294760428458,2.93629
1294760488458,2.94291
1294760548458,2.98098
1294760608458,2.93113
1294760668458,2.95931
1294760728458,2.93961
1294760788458,2.96593
1294760848458,2.94112
1294760908458,2.92440
1294760968458,2.96593
1294761028458,2.94465
1294761088458,2.94837
1294761148458,2.91742
1294761208458,2.93819
1294761268458,2.94869
1294761328458,2.91846
1294761388458,2.97167
1294761448458,2.95088
1294761508458,2.97017
1294761568458,2.94077
1294761628470,2.92150
1294761688470,2.92896
1294761748470,2.93722
1294761808470,2.94006
1294761868470,2.94730
1294761928470,2.93504
1294761988470,2.95890
1294762048470,2.94296
1294762108470,2.93921
1294762168470,2.94763
1294762228470,2.95141
1294762288470,2.94393
1294762348470,2.93207
1294762408470,2.93095
1294762468470,2.95101
1294762528470,3.05161
1294762588470,2.93569
1294762648470,2.93880
1294762708470,2.92280
1294762768470,2.92619
1294762828470,2.92759
1294762888470,2.92479
1294762948470,2.95642
1294763008470,2.93946
1294763068470,2.95745
1294763128470,2.93187
1294763188470,2.94366
1294763248470,2.94955
1294763308470,2.97085
1294763368470,2.93133
1294763428470,2.93452
1294763488470,2.90111
1294763548470,2.97045
1294763608470,2.92118
1294763668470,2.96010
1294763728470,2.93786
1294763788470,2.91098
1294763848470,2.93512
1294763908470,2.96013
1294763968470,2.95151
1294764028470,2.96289
1294764088470,2.93252
1294764148470,2.94247
1294764208470,2.94378
1294764268470,2.93403
1294764328470,2.94821
1294764388470,2.93857
1294764448470,2.94909
1294764508470,2.96564
1294764568470,2.97071
1294764628470,2.96360
1294764688470,2.93337
1294764748470,2.93764
1294764808470,2.92921
1294764868470,2.95010
1294764928470,2.94378
1294764988470,2.95876
1294765048470,2.94038
1294765108470,2.94684
1294765168470,2.93842
1294765228481,2.96054
1294765288481,2.96042
1294765348481,2.97792
1294765408481,2.96226
1294765468481,2.94203
1294765528481,2.95074
1294765588481,2.93233
1294765648481,2.93966
1294765708481,2.96065
1294765768481,2.94465
1294765828481,2.93851
1294765888481,2.94764
1294765948481,2.94697
1294766008481,2.93883
1294766068481,2.94298
1294766128481,2.95430
1294766188481,2.92674
1294766248481,2.95935
1294766308481,2.93853
1294766368481,2.93883
1294766428481,2.95445
1294766488481,2.93092
1294766548481,2.94479
1294766608481,2.96445
1294766668481,2.95929
1294766728481,2.95066
1294766788481,2.97273
1294766848481,2.93442
1294766908481,2.94879
1294766968481,2.93703
1294767028481,2.94086
1294767088481,2.95000
1294767148481,2.95842
1294767208481,2.93208
1294767268481,2.95048
1294767328481,2.93204
1294767388481,2.92566
1294767448481,2.95943
1294767508481,2.94670
1294767568481,2.93509
1294767628481,2.95053
1294767688481,2.94669
1294767748481,2.96706
1294767808481,2.94348
1294767868481,2.94468
1294767928481,2.93635
1294767988481,2.96383
1294768048481,2.95651
1294768108481,2.96821
1294768168481,2.91418
1294768228481,2.98126
1294768288481,2.99350
1294768348481,2.94552
1294768408481,2.95434
1294768468481,2.96101
1294768528481,2.97196
1294768588481,2.97366
1294768648481,2.97710
1294768708481,2.94241
1294768768481,2.93938
1294768828493,2.92430
1294768888493,2.95479
1294768948493,2.94475
1294769008493,2.95121
1294769068493,2.98406
1294769128493,2.97894
1294769188493,2.94489
1294769248493,2.96128
1294769308493,2.95864
1294769368493,2.96913
1294769428493,2.95498
1294769488493,2.94654
1294769548493,2.93776
1294769608493,2.95982
1294769668493,2.93508
1294769728493,2.93083
1294769788493,2.93028
1294769848493,2.97695